G7GFU-13 Weather Reports


time (UTC)temp
C
wind
direction
speed
KPH
gust
KPH
rain 1hr
cm
rain 24hr
cm
rain mn
cm
humidity
%
barometer
mb
20260507192703 11 198 0.0 3.2 0.00 0.00 0.00 74 1014.2
20260507191803 11 198 0.0 3.2 0.00 0.00 0.00 73 1014.2
20260507190903 11 0 0.0 1.6 0.00 0.00 0.00 73 1014.2
20260507190004 12 198 1.6 4.8 0.00 0.00 0.00 74 1014.2
20260507185403 12 197 0.0 3.2 0.00 0.00 0.00 74 1014.2
20260507184503 12 197 0.0 3.2 0.00 0.00 0.00 73 1014.2
20260507183603 12 194 1.6 4.8 0.00 0.00 0.00 72 1014.1
20260507182703 12 192 1.6 3.2 0.00 0.00 0.00 72 1014.0
20260507181803 12 0 0.0 3.2 0.00 0.00 0.00 72 1013.9
20260507180903 12 191 0.0 4.8 0.00 0.00 0.00 71 1013.9
20260507180003 12 198 0.0 3.2 0.00 0.00 0.00 71 1013.9
20260507175617 12 198 0.0 3.2 0.00 0.00 0.00 71 1013.9
20260507174503 12 191 0.0 4.8 0.00 0.00 0.00 70 1013.9
20260507173816 12 193 1.6 4.8 0.00 0.00 0.00 68 1013.9
20260507172703 13 192 4.8 9.7 0.00 0.00 0.00 61 1013.8
20260507171803 13 198 3.2 8.0 0.00 0.00 0.00 62 1013.8
20260507171116 13 167 4.8 8.0 0.00 0.00 0.00 60 1013.8
20260507170003 13 187 6.4 20.9 0.00 0.00 0.00 58 1013.8
20260507165403 14 182 6.4 11.3 0.00 0.00 0.00 58 1013.8
20260507164503 14 165 6.4 9.7 0.00 0.00 0.00 57 1013.7
20260507163603 14 181 6.4 14.5 0.00 0.00 0.00 56 1013.7
20260507162703 14 158 6.4 14.5 0.00 0.00 0.00 56 1013.7
20260507161803 14 186 6.4 17.7 0.00 0.00 0.00 55 1013.7
20260507161118 15 169 4.8 12.9 0.00 0.00 0.00 54 1013.8
20260507160003 15 147 4.8 12.9 0.00 0.00 0.00 55 1013.8
20260507155403 15 160 4.8 12.9 0.00 0.00 0.00 54 1013.8
20260507154503 14 173 3.2 11.3 0.00 0.00 0.00 57 1013.9
20260507153818 14 185 3.2 6.4 0.00 0.00 0.00 57 1013.9
20260507152703 13 198 3.2 6.4 0.00 0.00 0.00 58 1014.0
20260507151803 13 170 4.8 12.9 0.00 0.00 0.00 58 1014.0
20260507150903 14 152 6.4 14.5 0.00 0.00 0.00 56 1014.0
20260507150217 14 186 4.8 14.5 0.00 0.00 0.00 55 1014.0
20260507145403 15 164 4.8 16.1 0.00 0.00 0.00 55 1014.1
20260507144503 15 152 6.4 12.9 0.00 0.00 0.00 55 1014.2
20260507143603 15 169 6.4 14.5 0.00 0.00 0.00 54 1014.3
20260507142703 15 178 6.4 22.5 0.00 0.00 0.00 54 1014.4
20260507141803 16 183 6.4 11.3 0.00 0.00 0.00 52 1014.6
20260507140903 16 173 4.8 17.7 0.00 0.00 0.00 52 1014.6
20260507140003 16 150 4.8 11.3 0.00 0.00 0.00 53 1014.6
20260507135618 15 164 4.8 14.5 0.00 0.00 0.00 52 1014.7
20260507134503 15 177 4.8 9.7 0.00 0.00 0.00 53 1014.8
20260507133603 15 178 6.4 16.1 0.00 0.00 0.00 55 1014.8
20260507132703 15 158 6.4 14.5 0.00 0.00 0.00 53 1014.9
20260507131803 15 157 6.4 12.9 0.00 0.00 0.00 54 1014.9
20260507130903 15 157 6.4 14.5 0.00 0.00 0.00 54 1014.9
20260507130003 15 160 6.4 16.1 0.00 0.00 0.00 56 1015.0
20260507125403 15 178 6.4 16.1 0.00 0.00 0.00 56 1015.1
20260507124503 15 167 8.0 12.9 0.00 0.00 0.00 57 1015.1
20260507123603 15 166 6.4 12.9 0.00 0.00 0.00 56 1015.1
20260507122918 14 174 6.4 17.7 0.00 0.00 0.00 56 1015.1
20260507121803 14 173 6.4 16.1 0.00 0.00 0.00 56 1015.1
20260507120903 13 161 6.4 16.1 0.00 0.00 0.00 62 1015.2
20260507120004 13 154 6.4 11.3 0.00 0.00 0.00 64 1015.2
20260507115617 13 157 6.4 16.1 0.00 0.00 0.00 64 1015.2
20260507114717 12 158 6.4 12.9 0.00 0.00 0.00 66 1015.3
20260507113603 11 159 8.0 14.5 0.00 0.00 0.00 69 1015.4
20260507112703 11 156 6.4 14.5 0.00 0.00 0.00 70 1015.4
20260507112017 11 153 6.4 14.5 0.00 0.00 0.00 71 1015.4
20260507110903 11 159 4.8 12.9 0.00 0.00 0.00 71 1015.5
20260507110003 10 150 4.8 11.3 0.00 0.00 0.00 73 1015.5
20260507105403 10 146 4.8 6.4 0.00 0.00 0.00 73 1015.6
20260507104503 10 150 6.4 14.5 0.00 0.00 0.00 74 1015.7
20260507103603 10 150 4.8 11.3 0.00 0.00 0.00 73 1015.7
20260507102703 10 154 6.4 12.9 0.00 0.00 0.00 75 1015.7
20260507101803 10 159 6.4 14.5 0.00 0.00 0.00 74 1015.7
20260507100903 10 158 6.4 12.9 0.00 0.00 0.00 75 1015.7
20260507100003 9 158 4.8 9.7 0.00 0.00 0.00 77 1015.7
20260507095403 9 152 6.4 11.3 0.00 0.00 0.00 78 1015.7
20260507094503 8 166 6.4 12.9 0.00 0.00 0.00 78 1015.7
20260507093817 8 146 6.4 12.9 0.00 0.00 0.00 79 1015.7
20260507092703 8 148 6.4 11.3 0.00 0.00 0.00 80 1015.7
20260507091803 8 161 4.8 11.3 0.00 0.00 0.00 81 1015.7
20260507090903 8 155 4.8 11.3 0.00 0.00 0.00 81 1015.7
20260507090004 8 144 4.8 12.9 0.00 0.00 0.00 81 1015.6
20260507085403 8 161 4.8 11.3 0.00 0.00 0.00 81 1015.6
20260507084503 8 154 6.4 11.3 0.00 0.00 0.00 82 1015.5
20260507083603 7 152 6.4 8.0 0.00 0.00 0.00 82 1015.5
20260507082916 7 157 4.8 11.3 0.00 0.00 0.00 82 1015.6
20260507081803 7 147 6.4 11.3 0.00 0.00 0.00 82 1015.6
20260507080903 7 141 4.8 6.4 0.00 0.00 0.00 83 1015.6
20260507080216 7 154 4.8 9.7 0.00 0.00 0.00 83 1015.6
20260507075403 7 155 4.8 9.7 0.00 0.00 0.00 83 1015.6
20260507074717 7 148 4.8 6.4 0.00 0.00 0.00 83 1015.5
20260507073603 7 152 4.8 16.1 0.00 0.00 0.00 83 1015.5
20260507072703 7 151 6.4 14.5 0.00 0.00 0.00 83 1015.4
20260507071803 7 149 6.4 11.3 0.00 0.00 0.00 83 1015.4
20260507071116 7 150 4.8 12.9 0.00 0.00 0.00 83 1015.4
20260507070007 7 150 4.8 11.3 0.00 0.00 0.00 83 1015.4
20260507065403 7 148 4.8 11.3 0.00 0.00 0.00 83 1015.4
20260507064717 7 159 4.8 9.7 0.00 0.00 0.00 84 1015.3
20260507063603 7 151 4.8 8.0 0.00 0.00 0.00 84 1015.3
20260507062703 7 163 4.8 11.3 0.00 0.00 0.00 84 1015.3
20260507061803 7 151 4.8 9.7 0.00 0.00 0.00 84 1015.3
20260507060903 7 154 6.4 9.7 0.00 0.00 0.00 85 1015.3
20260507060003 6 159 4.8 12.9 0.00 0.00 0.00 85 1015.2
20260507055403 6 145 4.8 9.7 0.00 0.00 0.00 85 1015.2
20260507054503 6 150 4.8 9.7 0.00 0.00 0.00 85 1015.2
20260507053603 6 164 6.4 9.7 0.00 0.00 0.00 84 1015.2
20260507052703 6 164 6.4 9.7 0.00 0.00 0.00 84 1015.1
20260507051803 6 151 6.4 12.9 0.00 0.00 0.00 84 1015.1
20260507050903 6 152 6.4 11.3 0.00 0.00 0.00 84 1015.1
20260507050003 6 165 6.4 12.9 0.00 0.00 0.00 84 1015.1
20260507045403 6 154 6.4 12.9 0.00 0.00 0.00 84 1015.1
20260507044503 6 161 6.4 14.5 0.00 0.00 0.00 84 1015.1
20260507043817 6 152 4.8 11.3 0.00 0.00 0.00 85 1015.1
20260507042703 6 154 4.8 6.4 0.00 0.00 0.00 84 1015.2
20260507041803 6 151 4.8 9.7 0.00 0.00 0.00 84 1015.2
20260507040903 6 146 4.8 11.3 0.00 0.00 0.00 84 1015.2
20260507040003 6 166 6.4 11.3 0.00 0.00 0.00 84 1015.2
20260507035616 6 160 6.4 12.9 0.00 0.00 0.00 84 1015.2
20260507034503 6 156 4.8 9.7 0.00 0.00 0.00 84 1015.2
20260507033603 6 150 4.8 11.3 0.00 0.00 0.00 84 1015.2
20260507032703 6 145 4.8 9.7 0.00 0.00 0.00 84 1015.2
20260507031803 6 152 4.8 9.7 0.00 0.00 0.00 84 1015.3
20260507030903 6 148 6.4 11.3 0.00 0.00 0.00 84 1015.3
20260507030003 6 151 3.2 9.7 0.00 0.00 0.00 84 1015.4
20260507025403 6 152 3.2 8.0 0.00 0.00 0.00 84 1015.4
20260507024717 6 154 4.8 9.7 0.00 0.00 0.00 83 1015.3
20260507023603 6 171 3.2 8.0 0.00 0.00 0.00 83 1015.4
20260507022918 6 144 3.2 6.4 0.00 0.00 0.00 83 1015.4
20260507021803 6 172 1.6 4.8 0.00 0.00 0.00 82 1015.4
20260507021117 6 162 3.2 6.4 0.00 0.00 0.00 82 1015.3
20260507020003 6 150 4.8 8.0 0.00 0.00 0.00 81 1015.3
20260507015403 6 150 6.4 12.9 0.00 0.00 0.00 81 1015.4
20260507014503 7 165 4.8 9.7 0.00 0.00 0.00 81 1015.4
20260507013603 7 151 4.8 11.3 0.00 0.00 0.00 81 1015.4
20260507012703 7 160 4.8 9.7 0.00 0.00 0.00 80 1015.4
20260507011803 7 150 6.4 9.7 0.00 0.00 0.00 80 1015.5
20260507010903 7 154 6.4 12.9 0.00 0.00 0.00 80 1015.5
20260507010003 7 159 4.8 14.5 0.00 0.00 0.00 80 1015.6
20260507005403 7 151 4.8 8.0 0.00 0.00 0.00 80 1015.6
20260507004503 7 152 4.8 11.3 0.00 0.00 0.00 80 1015.7
20260507003603 7 141 4.8 11.3 0.00 0.00 0.00 79 1015.7
20260507002703 7 152 4.8 11.3 0.00 0.00 0.00 79 1015.8
20260507001803 7 150 4.8 8.0 0.00 0.00 0.00 79 1015.8
20260507000903 7 152 6.4 16.1 0.00 0.00 0.00 78 1015.8
20260507000003 7 158 4.8 9.7 0.00 0.00 0.00 78 1015.8
20260506235403 7 148 4.8 9.7 0.00 0.00 0.00 78 1015.7
20260506234503 7 153 4.8 12.9 0.00 0.00 0.00 77 1015.7
20260506233603 8 159 4.8 11.3 0.00 0.00 0.00 77 1015.7
20260506232703 8 149 6.4 11.3 0.00 0.00 0.00 76 1015.7
20260506231803 8 162 6.4 12.9 0.00 0.00 0.00 75 1015.6
20260506230903 8 150 6.4 16.1 0.00 0.00 0.00 75 1015.6
20260506230003 8 153 4.8 9.7 0.00 0.00 0.00 75 1015.6
20260506225403 8 155 4.8 12.9 0.00 0.00 0.00 75 1015.5
20260506224503 8 162 4.8 9.7 0.00 0.00 0.00 75 1015.5
20260506223603 8 169 4.8 11.3 0.00 0.00 0.00 74 1015.5
20260506222916 8 163 4.8 14.5 0.00 0.00 0.00 74 1015.4
20260506221803 8 164 4.8 6.4 0.00 0.00 0.00 73 1015.3
20260506220903 8 162 4.8 11.3 0.00 0.00 0.00 73 1015.3
20260506220003 8 161 3.2 9.7 0.00 0.00 0.00 72 1015.2
20260506215403 8 153 3.2 11.3 0.00 0.00 0.00 71 1015.2
20260506214717 9 159 4.8 12.9 0.00 0.00 0.00 71 1015.2
20260506213817 9 160 3.2 11.3 0.00 0.00 0.00 70 1015.2
20260506212703 9 175 3.2 9.7 0.00 0.00 0.00 70 1015.2
20260506212017 9 146 3.2 8.0 0.00 0.00 0.00 69 1015.2
20260506210903 9 165 3.2 8.0 0.00 0.00 0.00 68 1015.2
20260506210003 10 154 4.8 9.7 0.00 0.00 0.00 67 1015.1
20260506205403 10 154 4.8 11.3 0.00 0.00 0.00 67 1015.1
20260506204503 10 138 3.2 6.4 0.00 0.00 0.00 66 1015.1
20260506203818 10 156 4.8 9.7 0.00 0.00 0.00 65 1015.0
20260506202703 10 154 4.8 9.7 0.00 0.00 0.00 64 1014.9
20260506201803 10 142 3.2 8.0 0.00 0.00 0.00 63 1014.8
20260506200903 10 163 3.2 6.4 0.00 0.00 0.00 62 1014.7
20260506200003 10 186 3.2 9.7 0.00 0.00 0.00 61 1014.6
20260506195403 10 139 4.8 8.0 0.00 0.00 0.00 60 1014.5
20260506194503 10 137 3.2 8.0 0.00 0.00 0.00 59 1014.4
20260506193603 10 137 3.2 8.0 0.00 0.00 0.00 57 1014.4